VESSELSAT 1

Satellite information

Favourite Embed

Satellite Type and Status

PAYLOADIN ORBIT

Key statistics

Satellite VESSELSAT 1 at a glance.

Uptime

5018

Days in orbit

Revolutions

≈ 14.1

Per day

Orbit

LEO

Low Earth Orbit

Inclination

20.0

Latest

Satellite identification and parameters

Extended collection of information and parameters for VESSELSAT 1.

Object identification

Identified? True

Debris? False

Object name: VESSELSAT 1

International designator: 2011-058C

Object number (NORAD): 37840

Object ID (CCSDS): 37840

Country: LUXEMBOURG (LUXE)

Current information (Y/N): Y

RCS size: MEDIUM

Orbital parameters

Period: 102.03 minutes

Inclination: 19.9634 deg

SMA: 7232.871 km

Apoapsis: 864.669 km

Periapsis: 844.802 km

RAAN: 335.4884 deg

Eccentricy: 0.0013734

Argument of periapsis: 42.006 deg

Mean anomaly: 318.1396 deg

Mean motion: 14.113564 rev/day

Mean motion (dot): 0.00000324 rev/day2

B* drag term: 0.000032055 1/REarth

Two-line elements (TLE)

Creation date: July 6, 2025, 10:36 p.m.

Reference frame: TEME

Reference center: EARTH

Epoch: July 6, 2025, 6:06 p.m. UTC

TLE line 0: 0 VESSELSAT 1

TLE line 1: 1 37840U 11058C 25187.75437081 .00000324 00000-0 32055-4 0 9993

TLE line 2: 2 37840 19.9634 335.4884 0013734 42.0060 318.1396 14.11356400709306

Live tracking on map

Real-time ground track for satellite VESSELSAT 1.

In-orbit conjunctions

There are no conjunctions computed for VESSELSAT 1, at the moment. Check back to stay up to date, as we update our databases every day.

Go to all conjunctions

Associated space launch

VESSELSAT 1 was lifted into orbit during the mission ‘PSLV-CA | Megha-Tropiques’, on board a PSLV space rocket.

The launch took place on Oct. 12, 2011, 5:31 a.m. from Satish Dhawan Space Centre First Launch Pad.

For more information about the launch, click the button.

Launch to space PSLV-CA | Megha-Tropiques
PSLV-CA | Megha-Tropiques

Agency: N/A

Status: Launch Successful

Launch date: Oct. 12, 2011, 5:31 a.m. UTC

Rocket: PSLV

Launch pad: Satish Dhawan Space Centre First Launch Pad

Location: Satish Dhawan Space Centre, India

...

Latest news about this satellite

There are no fresh news available about this satellite. Check back as we update our databases every day.


Newsletter sign-up

Weekly statistics, charts and insights to help you stay on top of the space industry.